Regional Weather Roundup
Issued by NWS

Home | Current Version | Previous Version | Graphics & Text | Print | Product List | Glossary On
Versions: 1 2 3 4 5 6 7 8 9 10 11 12 13 14 15 16 17 18 19 20 21 22 23 24 25 26 27 28 29 30 31 32 33 34 35 36 37 38 39 40 41 42 43 44 45 46 47 48 49 50
000
ASUS43 KDTX 150010
RWRMI
MICHIGAN HOURLY REGIONAL WEATHER ROUNDUP
NATIONAL WEATHER SERVICE DETROIT/PONTIAC MI
800 PM EDT SUN SEP 14 2014

NOTE: "FAIR" INDICATES FEW OR NO CLOUDS BELOW 12,000 FEET WITH NO
SIGNIFICANT WEATHER AND/OR OBSTRUCTION TO VISIBILITY.

MIZ047>049-052>055-059>063-066>070-074>076-081>083-150100-
SOUTHEAST LOWER MICHIGAN

CITY           SKY/WX    TMP DP  RH WIND       PRES   REMARKS
ADRIAN         CLEAR     57  46  66 W3        30.22R
6HR MIN TEMP:  56; 6HR MAX TEMP:  64;

ALMA           CLEAR     53  46  78 CALM      30.19S
ANN ARBOR      MOCLDY    53  45  74 CALM      30.21S
BAD AXE        CLOUDY    54  48  82 S3        30.19F
6HR MIN TEMP:  54; 6HR MAX TEMP:  58;

CARO           CLOUDY    55  49  81 CALM      30.19S
DETROIT CITY   PTCLDY    59  43  55 S5        30.22S
6HR MIN TEMP:  59; 6HR MAX TEMP:  64;

DETROIT        PTCLDY    57  45  64 SE5       30.22S
6HR MIN TEMP:  57; 6HR MAX TEMP:  64;

FLINT          MOCLDY    58  45  62 SW3       30.20S
6HR MIN TEMP:  57; 6HR MAX TEMP:  63;

GROSSE ILE     CLEAR     57  46  67 CALM      30.21S
HILLSDALE      CLEAR     55  45  69 CALM      30.21S
6HR MIN TEMP:  55; 6HR MAX TEMP:  64;

HOWELL         CLEAR     56  43  60 CALM      30.20F
6HR MIN TEMP:  56; 6HR MAX TEMP:  61;


CITY           SKY/WX    TMP DP  RH WIND       PRES   REMARKS
JACKSON        CLEAR     56  45  66 CALM      30.21S
6HR MIN TEMP:  56; 6HR MAX TEMP:  64;

LAMBERTVILLE   CLEAR     55  50  82 CALM      30.22S
LANSING        CLEAR     56  44  64 SW6       30.20F
6HR MIN TEMP:  56; 6HR MAX TEMP:  63;

LAPEER         CLOUDY    55  45  70 CALM      30.20F
MASON          CLEAR     55  45  69 CALM      30.21S
MONROE         CLEAR     55  46  71 CALM      30.20S
MT. CLEMENS    PTCLDY    56  42  61 CALM      30.20S
6HR MIN TEMP:  55; 6HR MAX TEMP:  61;

PONTIAC        MOCLDY    57  42  57 SW3       30.20S
6HR MIN TEMP:  57; 6HR MAX TEMP:  60;

PORT HOPE        N/A     55  46  71 CALM      30.18S
6HR MIN TEMP:  55; 6HR MAX TEMP:  59;

PORT HURON     MOCLDY    48  46  93 CALM      30.22S
TRI CITIES     CLEAR     57  44  62 SW7       30.20S
6HR MIN TEMP:  57; 6HR MAX TEMP:  63;

TROY           MOCLDY    60  40  47 SW3       30.23S
SAGINAW HB     CLOUDY    59  45  58 SW3       30.19S
$$
MIZ043>046-050>051-056>058-064>065-071>073-077>080-150100-
SOUTHWEST LOWER MICHIGAN

CITY           SKY/WX    TMP DP  RH WIND       PRES   REMARKS
BATTLE CREEK   CLEAR     56  43  61 SW5       30.21S
6HR MIN TEMP:  56; 6HR MAX TEMP:  63;

BENTON HARBOR  CLEAR     58  45  62 S3        30.19F
6HR MIN TEMP:  58; 6HR MAX TEMP:  63;

BIG RAPIDS     CLEAR     52  47  83 SW3       30.18S
6HR MIN TEMP:  52; 6HR MAX TEMP:  61;

COLDWATER      CLEAR     57  46  67 CALM      30.21S
6HR MIN TEMP:  56; 6HR MAX TEMP:  65;

FREMONT        FAIR      52  43  72 SW3       30.18F
HOLLAND        CLEAR     57  46  66 CALM      30.20S
6HR MIN TEMP:  57; 6HR MAX TEMP:  63;

GRAND RAPIDS   CLEAR     56  44  64 W7        30.20S
6HR MIN TEMP:  56; 6HR MAX TEMP:  64;

IONIA          FAIR      56  47  71 W5        30.19S
KALAMAZOO      CLEAR     57  44  62 SW5       30.21S
6HR MIN TEMP:  57; 6HR MAX TEMP:  64;

LUDINGTON      CLEAR     57  49  74 S9        30.16S
6HR MIN TEMP:  57; 6HR MAX TEMP:  60;

MARSHALL       CLEAR     53  45  72 CALM      30.20F
MOUNT PLEASANT CLEAR     54  43  65 SW3       30.18S
6HR MIN TEMP:  54; 6HR MAX TEMP:  62;

MUSKEGON       PTCLDY    55  45  68 SW3       30.19F
6HR MIN TEMP:  55; 6HR MAX TEMP:  63;

SOUTH HAVEN    CLEAR     55  50  83 CALM      30.20S
$$
MIZ016>042-150100-
NORTHERN LOWER MICHIGAN

CITY           SKY/WX    TMP DP  RH WIND       PRES   REMARKS
ALPENA         PTCLDY    52  46  80 S8        30.14F
6HR MIN TEMP:  52; 6HR MAX TEMP:  57;

BEAVER ISLAND  CLOUDY    58  47  66 SW12G21   30.07S
6HR MIN TEMP:  57; 6HR MAX TEMP:  62;

BELLAIRE       MOCLDY    57  44  62 S6        30.12F
6HR MIN TEMP:  57; 6HR MAX TEMP:  62;

CADILLAC       PTCLDY    51  44  78 SW9       30.15S
CHARLEVOIX     MOCLDY    56  44  62 S9        30.12F
6HR MIN TEMP:  56; 6HR MAX TEMP:  62;

FRANKFORT      PTCLDY    57  46  66 S8G20     30.12F
GAYLORD        MOCLDY    52  44  74 SW7       30.13S
6HR MIN TEMP:  52; 6HR MAX TEMP:  57;

GRAYLING       MOCLDY    54  45  71 SW5       30.15S
HARBOR SPRINGS CLOUDY    58  44  59 S7        30.10F
HOUGHTON LAKE  PTCLDY    53  45  74 S6        30.16S
6HR MIN TEMP:  53; 6HR MAX TEMP:  58;

MANISTEE       PTCLDY    55  45  67 S7        30.15S
OSCODA         PTCLDY    53  46  76 CALM      30.16S
PELLSTON       CLOUDY    55  43  63 S3        30.10F
6HR MIN TEMP:  55; 6HR MAX TEMP:  60;

ROGERS CITY    MOCLDY    54  47  80 S5        30.13F
TRAVERSE CITY  MOCLDY    56  43  61 VRB5      30.11F
6HR MIN TEMP:  56; 6HR MAX TEMP:  62;

$$
MIZ007>008-015-150100-
EASTERN UPPER MICHIGAN

CITY           SKY/WX    TMP DP  RH WIND       PRES   REMARKS
KINROSS        CLOUDY    54  45  71 S6        30.07F
6HR MIN TEMP:  52; 6HR MAX TEMP:  57;

MACKINAC ISLAN CLOUDY    56  45  64 S8        30.09S
6HR MIN TEMP:  55; 6HR MAX TEMP:  59;

NEWBERRY       MOCLDY    53  46  76 SW14G20   30.04F
S. S. MARIE    CLOUDY    53  44  71 S3        30.07F
6HR MIN TEMP:  49; 6HR MAX TEMP:  56; 6HR PCP: TRACE;

MUNISING         N/A     57  48  72 S6        30.01R
6HR MIN TEMP:  56; 6HR MAX TEMP:  63; 6HR PCP:  0.01;

$$
MIZ004>006-011>014-085-150100-
CENTRAL UPPER MICHIGAN

CITY           SKY/WX    TMP DP  RH WIND       PRES   REMARKS
MANISTIQUE     LGT RAIN  55  51  85 SW12G20   30.05S
ESCANABA       CLOUDY    59  50  72 SW12G20   30.03S
6HR MIN TEMP:  57; 6HR MAX TEMP:  61;

MENOMINEE      CLEAR     57  46  67 SW6       30.05S
6HR MIN TEMP:  57; 6HR MAX TEMP:  63;

SAWYER-GWINN   MOCLDY    57  45  62 CALM      30.02R
$$
MIZ001>003-009>011-084-150100-
WESTERN UPPER MICHIGAN

CITY           SKY/WX    TMP DP  RH WIND       PRES   REMARKS
IRON MOUNTAIN  MOCLDY    57  44  62 W5        30.03R
6HR MIN TEMP:  57; 6HR MAX TEMP:  64;

HOUGHTON       PTCLDY    52  41  66 W9        30.00S
6HR MIN TEMP:  52; 6HR MAX TEMP:  60;

COPPER HARBOR    N/A     54  40  59 VRB6G20   29.98S
6HR MIN TEMP:  54; 6HR MAX TEMP:  60;

IRONWOOD       PTCLDY    52  45  76 W6        30.04R
6HR MIN TEMP:  52; 6HR MAX TEMP:  61;

$$

ABBREVIATIONS USED IN REMARKS
   TC - TEMPERATURE IN CELSIUS
  WCI - WIND CHILL INDEX
   HX - HEAT INDEX
  VSB - VISIBILITY




USA.gov is the U.S. government's official web portal to all federal, state and local government web resources and services.